Regional Weather Roundup
Issued by NWS Bismarck, ND

Home | Current Version | Previous Version | Text Only | Print | Product List | Glossary On
Versions: 1 2 3 4 5 6 7 8 9 10 11 12 13 14 15 16 17 18 19 20 21 22 23 24 25 26 27 28 29 30 31 32 33 34 35 36 37 38 39 40 41 42 43 44 45 46 47 48 49 50
000
ASUS43 KBIS 310120
RWRBIS

NWR BROADCAST TEXT
NATIONAL WEATHER SERVICE BISMARCK ND
700 PM CST FRI JAN 30 2015

NOTE: "FAIR" INDICATES FEW OR NO CLOUDS BELOW 12,000 FEET WITH NO
SIGNIFICANT WEATHER AND/OR OBSTRUCTIONS TO VISIBILITY.


CITY           SKY/WX    TMP DP  RH WIND       PRES   REMARKS
WILLISTON      CLEAR     32  26  78 N13       30.20R
MINOT          CLOUDY    24  20  84 NW16      30.20R WCI  11
MINOT AFB      CLOUDY    24  24  99 NW13      30.20R WCI  13
BISMARCK       CLEAR     34  27  75 NW5       30.17R
DICKINSON      CLEAR     34  24  67 N7        30.14R
GARRISON         N/A     30  26  85 N9        30.17R
HETTINGER ARPT CLEAR     33  24  69 N7        30.16R
JAMESTOWN      PTCLDY    30  26  85 NW7       30.13R
BEACH          FAIR      30  28  93 N5        30.18R
CARRINGTON     CLOUDY    25  25 100 MISG      30.18R
CROSBY         CLOUDY    23  23 100 N12       30.24R WCI  12
HARVEY         CLOUDY    25  25 100 N15G22    30.18R WCI  12
HAZEN          FAIR      30  27  86 NW5       30.18R
LINTON         FAIR      36  28  75 N7        30.15R
MANDAN         FAIR      32  27  80 NW8       30.16S
OAKES            N/A     28  28 100 W6        30.14R
RUGBY          CLOUDY    23  23 100 NW15      30.18R WCI  10
STANLEY        FAIR      25  25 100 N8        30.18R WCI  16
TIOGA          CLOUDY    27  27 100 N12       30.21S WCI  16
WATFORD CITY   FAIR      32  27  80 CALM      30.17S
$$

CITY           SKY/WX    TMP DP  RH WIND       PRES   REMARKS
GRAND FORKS    CLOUDY    30  23  75 NW7       30.13R
GRAND FORKS AF CLOUDY    30  22  73 NW10      30.14R
DEVILS LAKE    CLOUDY    25  19  80 N14G25    30.16R WCI  13
FARGO          CLEAR     28  23  81 S7        30.12S
CANDO          CLOUDY    25  21  86 N18G25    30.18R WCI  11
CAVALIER       CLOUDY    25  19  80 N16       30.17R WCI  12
GWINNER        CLEAR     32  32 100 W9        30.14S
ROLLA          CLOUDY    21  21 100 N22       30.16R WCI   5
WALHALLA         N/A     23  23 100 N16       30.18R WCI  10
$$

CITY           SKY/WX    TMP DP  RH WIND       PRES   REMARKS
ABERDEEN       CLEAR     30  27  88 CALM      30.14R
MOBRIDGE       CLEAR     30  24  78 CALM      30.11S
BUFFALO          N/A     39  26  59 N13       30.10R
RAPID CITY     MOCLDY    40  24  53 N15       30.14R
GLASGOW        PTCLDY    32  28  85 NE6       30.16F
SIDNEY         CLEAR     30  25  80 NW6       30.21S
WOLF POINT     PTCLDY    33  27  78 NE3       30.19S
GLENDIVE       CLEAR     28  23  80 N6        30.19R
MILES CITY     CLEAR     41  26  55 CALM      30.16R
BAKER          CLEAR     31  25  78 CALM      30.17R
$$

CITY           SKY/WX    TMP DP  RH WIND       PRES   REMARKS
BILLINGS       PTCLDY    43  20  39 S5        30.13S
GREAT FALLS    CLEAR     35  18  49 SW9       30.07F
REGINA         CLOUDY    19  16  86 N10       30.25S WCI   8
ESTEVAN        CLOUDY    23  19  86 N13       30.22R WCI  11
$$



USA.gov is the U.S. government's official web portal to all federal, state and local government web resources and services.